Probability
0 3 3 32 87 90 16 0 0 0 0 0 0 0 0 26 61 35 0 0 77 55 81 100 100 100 100 100 100 100 100 100 100 100 97 77 58 45 26 26 29 32 39 39 45 42 39 29 32
0 3 3 23 71 16 0 0 0 0 0 0 0 0 0 0 3 6 0 39 81 55 65 97 100 100 100 100 100 100 100 100 100 100 94 84 65 35 23 6 3 6 10 10 16 19 16 13 16
0 0 0 19 26 0 0 0 0 0 0 0 0 0 0 0 0 0 0 52 77 48 35 100 100 100 100 100 100 100 100 100 100 100 94 84 77 39 23 23 19 10 3 3 0 3 3 3 6
0 0 0 0 0 0 0 0 0 0 0 0 0 0 0 0 0 0 3 45 65 52 58 100 100 100 100 100 100 100 100 100 97 94 94 87 77 48 48 48 45 26 23 19 10 10 10 10 13
0 0 0 0 0 0 0 0 0 0 0 0 0 0 0 0 0 0 6 29 42 61 84 100 100 100 100 100 100 100 100 97 94 94 94 94 84 74 52 48 45 52 52 35 26 26 26 29 32
0 0 0 0 0 0 0 0 0 0 0 0 0 0 0 0 0 0 6 13 26 74 94 100 100 100 100 100 100 100 100 97 90 90 94 94 94 94 87 84 74 81 77 81 81 81 87 84 87
0 0 0 0 0 0 0 0 0 0 0 0 0 3 0 0 0 0 10 10 19 87 94 94 100 100 100 100 100 100 100 97 94 94 94 100 100 100 94 90 87 97 97 94 94 97 100 100 100
0 0 0 0 0 0 0 0 0 0 0 0 0 3 3 0 0 0 3 10 19 90 100 97 97 100 100 100 100 100 100 100 100 100 100 100 100 100 100 100 100 97 97 97 100 100 100 100 100
0 0 0 0 0 0 0 0 0 0 0 0 3 3 10 3 0 0 0 10 29 84 97 97 97 100 100 100 100 100 100 100 100 100 100 100 100 100 100 100 100 100 100 100 100 100 100 100 100
0 0 0 0 0 0 0 0 0 0 0 10 19 19 19 13 10 13 6 10 45 87 84 97 100 100 100 97 100 100 100 100 100 100 100 100 100 100 100 100 100 100 100 100 100 100 100 100 100
0 0 0 0 0 0 0 0 0 0 0 10 29 29 45 45 58 68 65 74 94 97 94 94 100 100 100 100 100 100 100 100 100 100 100 100 100 100 100 100 100 100 100 100 100 100 100 100 100
0 0 0 0 0 0 0 0 0 0 3 6 16 35 48 71 81 87 90 94 97 94 97 97 100 100 100 100 100 100 100 100 100 100 100 100 100 100 100 100 100 100 100 100 100 100 100 97 100
0 0 0 0 0 0 0 0 0 0 10 19 23 32 58 74 84 90 87 90 100 100 100 100 100 100 100 100 100 100 100 100 100 100 100 100 100 100 100 100 100 97 97 100 100 100 94 94 97
0 0 0 0 0 0 0 0 0 0 13 19 26 35 48 61 81 90 97 100 100 100 100 100 100 100 100 100 100 100 100 100 100 100 100 100 100 100 100 100 100 100 100 94 94 97 97 94 97
0 0 0 0 0 0 0 0 0 3 10 23 26 39 52 74 77 84 100 100 97 100 100 100 100 100 100 100 100 100 97 97 97 100 100 100 100 100 100 100 100 100 94 94 94 94 94 97 94
0 0 0 0 0 0 0 0 3 10 13 16 26 32 65 81 74 84 100 100 100 100 100 97 97 97 97 100 100 100 97 97 97 97 100 100 100 100 100 100 97 97 97 94 94 94 97 94 94
0 0 0 0 0 0 0 0 3 10 13 16 23 39 61 84 84 90 84 94 94 100 100 97 97 97 97 90 94 90 94 94 97 90 94 90 90 90 90 94 97 97 90 90 90 94 94 90 90
0 0 0 0 0 0 0 3 6 6 10 19 32 39 68 81 87 87 87 87 90 97 97 100 100 97 84 84 84 90 90 87 84 87 97 74 74 77 84 87 90 90 87 90 94 94 94 94 90
0 0 0 0 0 0 0 3 3 10 10 19 32 52 65 81 84 84 81 81 84 84 90 90 87 84 90 87 97 90 94 84 74 81 74 42 52 61 61 65 74 71 68 81 74 77 74 81 90
0 0 0 0 0 0 0 0 3 10 10 26 45 48 71 81 81 84 81 81 77 84 77 84 81 77 81 81 100 94 87 81 71 65 71 52 39 42 23 68 68 68 71 71 81 84 77 77 81
0 0 0 0 0 0 0 0 6 13 13 19 29 48 61 74 81 77 71 74 68 68 71 77 84 81 84 90 90 90 97 100 90 87 77 71 42 32 45 48 71 71 71 68 71 71 71 61 71
0 0 0 0 0 0 0 0 6 13 13 23 29 52 55 65 68 65 58 58 58 61 65 74 71 74 81 87 94 90 90 94 90 94 87 74 58 48 48 45 58 71 68 68 61 39 55 45 45
0 0 0 0 0 0 0 0 0 10 26 32 26 42 45 45 55 45 39 45 39 35 45 68 68 71 77 84 90 97 90 90 90 90 94 97 87 84 58 52 48 55 65 71 65 65 58 48 39
0 0 0 0 0 0 0 0 0 19 26 26 35 35 45 48 45 39 32 29 26 29 29 39 52 55 68 74 74 84 84 90 94 94 94 90 90 90 81 52 52 55 61 61 61 61 48 48 52
0 0 0 0 0 0 0 0 10 16 26 19 26 29 26 26 19 13 13 13 10 13 13 26 35 48 52 55 58 65 71 74 74 77 81 84 84 84 81 55 61 55 58 58 61 61 58 42 45
0 0 0 0 0 0 0 0 19 19 13 13 10 10 6 6 10 3 3 0 0 0 0 6 13 19 26 32 39 52 58 58 65 68 74 71 74 65 65 65 65 61 58 42 55 48 45 35 48
0 0 0 0 0 0 0 3 0 3 0 0 0 3 3 3 3 3 0 0 3 3 3 3 6 6 6 6 13 19 23 35 39 48 52 45 58 52 55 48 58 68 65 55 58 39 58 45 39
0 0 0 0 0 0 0 0 6 0 0 0 0 0 0 0 0 0 0 0 0 0 0 0 3 6 6 6 3 0 10 13 16 26 35 39 42 48 48 45 48 52 52 58 55 55 45 35 35
0 0 0 0 0 0 0 0 19 13 0 0 0 0 0 0 0 0 0 0 0 0 0 0 0 0 3 3 3 3 0 3 3 3 10 10 13 23 26 35 52 39 42 52 48 35 29 19 19
0 0 0 0 0 0 0 0 3 0 0 0 0 0 0 0 0 0 0 0 0 0 0 0 0 0 0 0 0 0 0 0 0 0 3 3 3 3 3 16 23 19 19 35 26 16 3 13 10
Height
5922 5922 5923 5923 5923 5922 5924 5924 5922 5921 5920 5919 5919 5918 5918 5919 5920 5922 5920 5919 5919 5919 5918 5918 5918 5918 5917 5917 5916 5916 5915 5914 5913 5912 5911 5910 5909 5908 5907 5906 5904 5903 5902 5901 5900 5899 5898 5897 5896
5924 5925 5925 5924 5922 5924 5925 5924 5923 5922 5921 5920 5919 5919 5919 5919 5919 5919 5919 5919 5919 5918 5918 5918 5918 5918 5917 5916 5916 5915 5915 5914 5913 5912 5911 5910 5909 5908 5907 5905 5904 5903 5902 5901 5900 5899 5898 5898 5897
5925 5925 5926 5924 5923 5925 5925 5925 5924 5922 5922 5921 5920 5920 5920 5920 5919 5919 5919 5919 5918 5918 5918 5917 5917 5917 5916 5916 5915 5915 5914 5913 5912 5911 5910 5909 5908 5907 5906 5905 5904 5903 5902 5901 5900 5899 5898 5898 5897
5925 5926 5927 5926 5926 5926 5926 5925 5924 5923 5922 5921 5920 5920 5919 5919 5919 5919 5918 5918 5918 5917 5917 5917 5916 5916 5915 5915 5914 5914 5913 5912 5911 5910 5909 5908 5907 5906 5905 5904 5903 5902 5901 5900 5899 5899 5898 5897 5897
5925 5926 5926 5926 5925 5926 5926 5924 5923 5922 5922 5920 5920 5920 5919 5919 5919 5918 5917 5917 5917 5916 5916 5916 5915 5915 5914 5914 5913 5912 5911 5911 5910 5909 5908 5907 5906 5905 5904 5903 5902 5901 5900 5899 5898 5898 5897 5897 5896
5925 5925 5927 5927 5925 5923 5924 5923 5923 5922 5920 5918 5918 5918 5918 5918 5917 5917 5916 5916 5915 5915 5915 5915 5914 5914 5913 5912 5911 5910 5910 5909 5908 5907 5906 5905 5904 5903 5902 5901 5900 5899 5898 5897 5897 5896 5896 5895 5895
5924 5925 5925 5927 5925 5923 5922 5923 5922 5921 5920 5919 5917 5916 5916 5916 5915 5915 5914 5914 5914 5914 5913 5913 5912 5912 5911 5910 5909 5908 5908 5907 5906 5904 5903 5902 5901 5900 5899 5898 5897 5896 5896 5895 5894 5894 5893 5893 5892
5921 5924 5924 5927 5927 5924 5922 5921 5921 5920 5918 5917 5916 5914 5914 5914 5913 5913 5913 5912 5912 5912 5912 5911 5910 5910 5909 5908 5907 5906 5905 5904 5903 5901 5900 5899 5898 5897 5896 5895 5894 5893 5892 5892 5891 5891 5890 5890 5889
5917 5921 5923 5926 5924 5922 5920 5920 5920 5917 5916 5915 5914 5912 5912 5911 5911 5912 5911 5911 5910 5910 5909 5908 5908 5907 5906 5905 5903 5902 5901 5900 5899 5898 5897 5895 5894 5893 5892 5891 5890 5889 5888 5887 5887 5886 5886 5886 5885
5914 5916 5920 5922 5921 5919 5918 5918 5918 5916 5912 5909 5909 5907 5907 5909 5909 5909 5909 5909 5908 5907 5906 5905 5905 5904 5903 5901 5900 5898 5897 5896 5895 5893 5892 5891 5889 5888 5887 5886 5885 5884 5883 5882 5882 5881 5881 5881 5881
5909 5911 5914 5915 5915 5915 5916 5917 5916 5914 5910 5904 5902 5899 5902 5905 5907 5907 5906 5906 5905 5904 5903 5902 5901 5900 5899 5897 5896 5894 5893 5891 5890 5888 5887 5885 5884 5883 5882 5881 5880 5878 5877 5876 5876 5875 5875 5875 5875
5904 5906 5907 5909 5909 5910 5912 5913 5913 5911 5908 5904 5898 5895 5897 5902 5903 5903 5903 5902 5902 5900 5899 5898 5897 5896 5894 5893 5891 5890 5888 5887 5885 5883 5882 5880 5879 5877 5876 5875 5873 5873 5872 5871 5870 5870 5869 5868 5868
5899 5901 5902 5903 5904 5905 5906 5908 5908 5907 5904 5899 5897 5896 5896 5898 5899 5899 5898 5898 5897 5896 5895 5894 5893 5891 5890 5888 5886 5885 5883 5881 5879 5878 5876 5875 5873 5871 5870 5869 5867 5866 5865 5864 5864 5863 5863 5862 5862
5894 5894 5896 5898 5899 5900 5901 5902 5904 5904 5901 5896 5894 5893 5891 5894 5894 5894 5893 5893 5892 5891 5890 5889 5888 5886 5885 5883 5881 5880 5878 5876 5874 5872 5871 5869 5867 5866 5864 5863 5861 5860 5859 5858 5857 5857 5856 5855 5855
5888 5889 5890 5892 5893 5895 5897 5898 5900 5901 5897 5895 5892 5890 5890 5890 5890 5889 5888 5887 5886 5885 5884 5883 5882 5881 5879 5878 5876 5874 5872 5870 5868 5867 5865 5863 5861 5860 5858 5857 5856 5854 5853 5852 5852 5851 5850 5850 5850
5884 5885 5885 5888 5889 5891 5894 5894 5896 5895 5891 5889 5888 5886 5885 5885 5885 5883 5882 5881 5879 5879 5878 5877 5875 5874 5873 5872 5870 5868 5866 5864 5862 5860 5859 5858 5856 5854 5853 5851 5850 5849 5848 5847 5847 5846 5845 5844 5843
5881 5882 5884 5887 5888 5889 5889 5890 5890 5887 5886 5884 5879 5877 5879 5879 5879 5877 5876 5875 5873 5872 5871 5870 5868 5867 5866 5865 5863 5861 5859 5857 5856 5854 5853 5851 5850 5849 5847 5846 5845 5844 5843 5842 5842 5841 5840 5839 5838
5881 5883 5885 5886 5885 5883 5883 5884 5884 5881 5879 5878 5875 5872 5873 5873 5872 5870 5869 5867 5866 5865 5862 5861 5861 5860 5859 5857 5856 5854 5852 5850 5848 5848 5847 5845 5844 5843 5842 5841 5840 5839 5839 5838 5837 5836 5835 5833 5832
5876 5878 5880 5881 5878 5877 5877 5878 5878 5876 5872 5872 5870 5867 5866 5865 5863 5863 5861 5859 5858 5857 5855 5854 5853 5852 5850 5849 5847 5847 5845 5844 5842 5841 5840 5839 5838 5837 5837 5836 5835 5834 5833 5832 5831 5830 5829 5828 5826
5872 5874 5875 5875 5873 5872 5872 5873 5873 5870 5867 5866 5862 5860 5859 5856 5854 5854 5850 5851 5850 5847 5845 5844 5845 5844 5842 5841 5839 5839 5837 5836 5836 5835 5834 5833 5832 5831 5831 5830 5830 5829 5828 5827 5826 5825 5824 5822 5820
5870 5870 5870 5869 5867 5867 5867 5867 5867 5864 5861 5858 5855 5854 5850 5849 5848 5845 5841 5842 5842 5839 5836 5835 5837 5836 5835 5833 5831 5831 5830 5829 5828 5828 5827 5826 5825 5825 5824 5824 5823 5823 5822 5821 5820 5819 5818 5816 5814
5866 5865 5864 5864 5864 5864 5864 5863 5861 5857 5854 5851 5847 5845 5844 5842 5841 5840 5836 5835 5833 5831 5828 5830 5828 5828 5827 5826 5825 5824 5823 5822 5821 5820 5820 5819 5819 5818 5818 5818 5817 5816 5816 5815 5814 5813 5811 5810 5808
5863 5861 5861 5860 5859 5858 5859 5857 5856 5851 5848 5846 5842 5842 5839 5838 5838 5836 5832 5829 5824 5824 5823 5823 5820 5820 5820 5819 5817 5816 5815 5815 5814 5813 5812 5812 5811 5811 5811 5810 5810 5809 5809 5808 5807 5806 5804 5803 5802
5860 5859 5858 5856 5854 5853 5851 5851 5849 5845 5844 5843 5841 5839 5837 5834 5833 5830 5827 5824 5821 5818 5816 5816 5815 5814 5812 5811 5809 5808 5807 5806 5805 5804 5804 5803 5803 5803 5803 5802 5802 5801 5801 5800 5800 5798 5797 5796 5794
5859 5858 5856 5853 5849 5845 5843 5844 5845 5843 5842 5839 5838 5836 5833 5831 5828 5825 5822 5819 5817 5814 5811 5809 5807 5806 5804 5801 5799 5799 5798 5797 5796 5795 5794 5794 5794 5794 5793 5793 5793 5792 5792 5792 5791 5790 5789 5788 5787
5857 5856 5855 5852 5849 5846 5842 5841 5840 5835 5833 5834 5833 5831 5829 5826 5822 5819 5816 5813 5810 5807 5805 5801 5799 5796 5794 5792 5790 5788 5787 5787 5786 5785 5784 5784 5783 5783 5782 5782 5782 5782 5782 5782 5782 5781 5781 5780 5779
5856 5854 5853 5851 5849 5848 5845 5839 5832 5829 5827 5828 5828 5826 5823 5819 5816 5812 5809 5805 5802 5799 5795 5792 5789 5786 5783 5781 5778 5777 5775 5774 5773 5773 5772 5772 5771 5771 5771 5771 5771 5771 5771 5771 5771 5771 5771 5770 5770
5856 5853 5851 5849 5846 5844 5843 5837 5831 5827 5825 5823 5820 5818 5816 5812 5807 5803 5799 5796 5792 5788 5784 5781 5777 5774 5771 5767 5765 5763 5761 5760 5759 5758 5758 5758 5758 5757 5758 5759 5759 5759 5759 5760 5760 5760 5760 5760 5760
5854 5852 5850 5847 5845 5842 5838 5836 5829 5825 5820 5817 5813 5811 5807 5803 5798 5793 5788 5784 5781 5776 5772 5767 5763 5760 5756 5753 5750 5747 5745 5743 5742 5741 5741 5741 5741 5742 5743 5744 5745 5746 5746 5747 5748 5749 5749 5750 5750
5850 5849 5847 5844 5841 5838 5835 5832 5825 5820 5815 5811 5806 5802 5797 5792 5787 5782 5776 5771 5766 5762 5757 5752 5748 5744 5740 5736 5733 5731 5728 5726 5724 5723 5722 5722 5723 5724 5726 5727 5729 5731 5732 5733 5735 5736 5737 5738 5739
Wind_Speed
14 14 14 13 14 16 7 1 1 2 2 2 2 3 3 1 0 1 1 1 1 1 2 2 3 4 5 6 6 7 7 8 8 9 9 9 9 9 9 9 8 8 8 8 7 7 7 7 7
11 11 10 10 14 11 2 3 3 2 1 2 3 3 2 2 2 2 1 1 2 2 2 3 3 4 5 5 6 7 7 8 8 9 9 10 10 9 9 9 9 8 8 7 7 7 7 6 6
7 7 7 9 11 5 3 5 5 4 3 3 4 3 3 3 3 3 3 3 3 4 4 5 5 6 6 7 7 8 8 9 9 9 10 10 10 11 10 10 10 9 9 8 8 7 7 7 6
3 5 5 8 5 2 4 6 5 5 5 5 6 5 5 5 5 5 4 4 4 5 5 7 8 8 8 8 9 10 10 10 11 11 11 11 11 11 12 11 11 11 10 10 9 9 8 8 8
3 3 3 5 1 1 5 5 6 7 7 8 9 8 8 7 7 6 6 6 6 6 7 8 9 9 10 10 11 12 12 13 13 13 14 13 13 13 13 13 13 13 13 12 11 11 10 10 10
6 4 3 9 9 3 6 8 7 9 8 8 10 10 10 9 8 8 7 7 7 7 8 9 10 11 11 12 13 14 15 15 15 16 16 16 15 15 15 15 15 15 15 15 14 13 13 12 12
9 7 4 8 12 8 8 11 11 11 10 11 11 11 11 10 9 8 8 8 8 9 10 11 11 12 13 14 15 16 17 17 17 18 18 18 18 18 18 18 18 18 17 17 16 16 15 15 15
12 10 6 6 11 12 12 12 13 14 15 12 12 15 13 11 8 8 9 10 10 11 12 13 13 14 15 16 17 18 18 19 20 20 21 21 21 21 21 21 21 20 20 19 19 19 18 18 18
14 12 7 6 12 12 12 11 13 15 16 16 16 17 14 11 10 10 11 12 13 14 15 15 15 16 17 18 19 20 21 21 21 22 23 23 23 24 24 24 24 23 23 22 22 21 21 21 21
17 15 10 11 14 12 12 11 13 17 16 16 17 16 12 11 12 12 13 14 15 16 17 17 18 19 20 21 21 22 22 23 23 24 25 25 26 26 26 26 26 26 26 25 25 24 24 24 24
19 19 17 18 18 20 18 14 15 17 20 22 22 17 10 10 14 15 16 16 17 18 19 20 21 22 23 23 23 23 24 24 25 25 26 26 27 27 28 28 28 28 28 28 27 27 27 27 27
21 22 23 25 24 25 23 20 18 19 24 27 26 22 13 13 17 18 19 19 20 21 22 23 24 26 26 26 25 25 25 25 26 26 26 27 28 28 29 29 29 29 29 29 29 28 28 28 27
20 23 25 26 27 26 24 22 22 22 24 28 27 26 22 20 22 22 22 23 23 25 26 27 28 28 28 28 27 27 27 27 27 27 27 28 28 28 29 30 30 29 29 29 28 28 28 28 28
21 23 24 25 26 25 25 24 23 23 25 28 30 28 25 25 26 26 26 26 27 28 29 30 31 31 30 30 29 28 28 28 28 29 28 28 29 29 28 28 28 28 28 27 26 26 27 26 26
21 23 24 25 24 23 23 24 23 22 27 29 30 30 30 29 29 29 30 30 31 32 33 34 33 33 32 31 30 29 29 28 28 29 29 29 28 27 27 26 26 26 25 23 22 23 24 24 25
18 20 21 19 19 19 23 24 21 24 29 30 31 31 33 32 31 32 33 34 35 36 36 36 36 35 33 32 31 30 30 30 29 29 29 28 27 26 25 24 24 23 22 21 20 20 21 22 23
12 15 15 14 15 20 22 22 21 27 30 32 33 32 33 34 33 34 36 37 38 38 38 38 38 37 34 33 33 31 30 29 29 29 28 27 26 25 25 23 22 21 20 20 20 21 21 22 23
10 12 12 12 16 22 22 21 22 28 31 32 34 33 34 36 36 37 38 38 39 39 39 38 38 37 36 35 34 33 31 29 29 29 28 27 26 25 24 23 21 21 20 20 20 21 21 22 24
15 13 13 15 22 26 24 23 23 29 33 33 35 36 37 38 39 39 38 37 40 40 39 38 37 37 37 36 34 34 33 31 30 30 27 26 25 24 23 22 21 21 21 20 20 21 22 23 24
10 12 13 15 20 25 28 26 24 29 33 34 36 33 35 39 38 38 38 38 38 39 38 37 38 39 38 37 36 35 34 33 32 30 28 26 25 24 23 23 22 22 21 21 21 21 22 23 25
7 9 13 16 19 19 19 19 19 25 30 31 31 33 32 33 35 36 35 35 37 37 36 37 39 39 38 37 36 35 34 33 32 29 27 26 25 25 24 24 24 23 23 22 23 23 23 24 26
8 13 15 16 17 18 17 19 20 25 30 31 30 27 26 29 31 32 33 35 36 36 37 39 38 38 37 37 37 34 33 33 33 30 28 27 27 26 26 26 26 26 26 25 25 25 25 26 27
12 14 14 13 15 14 15 18 20 25 28 29 26 26 28 28 31 32 33 33 34 36 37 37 37 36 37 36 36 35 34 34 32 31 29 28 28 28 28 28 29 29 29 29 28 28 28 28 28
10 9 8 11 15 17 18 18 21 25 25 26 28 30 32 31 31 30 31 32 33 34 35 35 35 36 37 38 37 36 36 35 35 33 32 30 30 30 31 31 32 32 32 32 32 31 31 31 30
11 10 12 16 20 19 14 12 18 21 23 25 28 29 30 30 30 30 31 32 33 34 36 37 38 38 39 40 39 39 38 38 38 37 36 34 34 34 35 34 34 35 35 35 35 34 34 34 33
10 9 12 16 17 21 20 16 22 20 20 23 25 26 29 30 31 32 33 34 35 37 39 40 42 43 43 44 44 44 43 42 42 41 40 39 38 38 39 38 37 37 37 37 37 37 37 36 35
9 7 9 14 14 13 16 25 25 24 23 23 24 29 32 34 35 37 39 40 41 43 44 46 47 48 49 49 50 50 50 49 48 47 46 45 44 43 42 42 41 41 41 40 40 39 38 38 36
12 12 13 14 15 15 16 27 33 33 32 29 31 33 36 38 40 42 43 44 45 47 49 50 52 53 54 55 56 56 56 56 55 54 53 52 50 48 47 46 45 44 43 43 42 41 40 39 38
12 13 15 17 18 20 22 27 32 34 33 34 37 39 40 43 45 47 48 49 50 51 53 54 55 56 58 59 60 60 61 61 61 60 59 58 56 54 53 51 50 48 47 45 44 43 41 40 39
12 16 19 20 21 21 23 30 32 34 36 38 41 43 46 48 49 51 52 53 54 55 56 57 58 59 60 61 62 63 64 65 65 65 64 63 62 60 59 57 55 53 51 48 46 45 43 42 40
Wind_Direction
83 83 89 92 88 76 84 162 225 214 210 206 196 205 209 168 40 136 143 68 20 17 25 22 12 8 7 4 360 355 352 351 350 349 350 351 351 351 351 351 353 356 0 2 1 2 3 6 8
91 93 95 93 86 91 67 321 314 314 267 239 221 229 224 208 204 186 217 277 307 320 328 337 337 340 344 346 344 341 339 338 337 337 338 338 338 338 338 339 340 341 343 346 347 347 347 348 350
100 100 96 83 70 70 357 332 337 322 302 285 270 267 264 252 241 243 259 278 297 307 312 317 320 322 327 330 330 329 328 327 327 328 328 329 330 328 327 326 327 328 329 329 330 331 331 330 329
119 106 95 81 77 350 312 325 331 314 301 285 278 274 272 270 269 269 274 282 294 303 308 313 317 319 322 324 324 325 324 324 323 322 322 322 322 321 319 318 317 317 318 318 316 316 316 315 315
204 160 38 4 240 223 288 307 312 302 299 292 289 282 278 278 280 281 283 286 296 305 309 313 317 320 321 323 323 323 321 321 321 320 319 318 316 316 313 312 310 310 309 309 308 305 303 303 304
233 214 357 304 292 262 279 294 297 295 298 292 285 284 283 281 282 285 290 293 300 307 311 316 318 320 320 319 319 319 318 316 316 315 315 315 313 310 309 307 305 304 303 303 303 301 298 296 295
245 238 221 293 295 285 271 283 286 288 291 283 291 289 285 277 280 284 290 294 301 307 311 314 315 316 316 316 316 315 314 313 312 312 311 310 309 308 306 303 301 300 299 298 297 296 294 292 291
248 242 229 269 283 281 277 280 285 284 279 280 288 283 281 278 278 283 289 296 302 307 310 313 313 313 313 312 312 311 310 309 308 307 306 305 304 303 301 300 298 295 294 293 292 290 290 288 286
245 238 226 262 270 264 266 274 279 276 277 286 283 276 274 274 278 284 290 297 304 308 311 313 315 316 315 313 312 311 309 307 305 303 303 301 300 299 298 297 295 293 291 290 289 286 285 284 283
243 235 217 240 252 252 262 271 270 276 269 264 261 257 258 271 280 287 293 300 306 310 314 316 319 319 317 315 313 311 308 306 304 301 299 298 296 295 294 293 293 291 288 286 285 284 282 280 280
243 236 224 230 238 241 250 262 268 271 269 266 254 240 240 274 285 289 294 300 306 311 314 317 319 320 318 317 315 311 307 304 301 299 297 296 295 294 292 290 289 289 287 285 283 282 281 280 278
249 243 237 238 243 247 250 252 256 258 263 267 271 279 285 288 289 291 295 301 306 310 312 315 318 319 318 317 315 311 307 303 300 297 294 294 294 293 292 291 289 288 287 286 285 283 282 282 280
252 250 247 248 251 255 254 252 256 259 264 265 274 283 290 290 288 290 294 299 304 307 309 312 314 315 315 314 312 310 307 303 300 297 294 293 293 291 290 289 289 289 288 287 285 285 283 282 282
258 254 251 250 253 254 257 255 255 260 264 269 274 278 285 286 287 289 292 296 300 302 304 308 310 311 311 310 309 307 305 302 300 296 294 293 292 290 289 289 288 287 288 288 289 287 287 287 284
265 262 259 256 257 258 260 259 258 259 260 263 269 273 276 279 284 287 290 293 296 298 300 303 304 306 306 306 306 306 304 300 297 295 293 293 292 291 289 288 288 288 290 290 291 292 289 291 291
273 272 268 265 264 260 258 259 258 256 256 258 261 265 271 275 278 282 287 289 292 294 296 298 299 302 302 302 302 302 301 300 297 294 293 292 291 290 288 288 288 288 289 291 292 293 293 294 295
291 290 285 276 262 253 253 257 256 258 258 261 262 263 269 274 276 280 284 286 288 290 292 294 296 298 298 299 299 299 299 298 296 292 291 290 288 287 286 286 285 286 288 291 293 295 295 295 296
273 269 274 268 249 247 251 253 251 258 259 260 267 270 272 275 276 278 280 282 284 286 287 290 292 294 294 295 295 296 297 297 293 290 290 288 286 285 283 281 281 283 286 289 293 296 298 299 299
246 240 240 237 239 245 251 256 253 257 263 266 270 272 274 275 274 278 277 280 282 282 283 285 287 289 289 291 292 293 293 293 292 290 286 284 283 282 281 279 279 281 284 288 291 295 299 301 302
255 247 242 246 250 254 257 259 261 262 267 269 270 270 275 277 277 277 276 279 280 281 279 281 284 286 288 290 292 291 291 291 290 288 284 280 279 279 277 276 277 280 282 286 290 295 299 301 303
267 254 249 249 253 265 276 274 266 265 268 270 271 274 276 276 277 280 278 279 278 278 278 281 283 284 286 288 288 288 289 290 288 286 282 278 277 277 275 275 276 278 281 284 288 292 297 300 303
268 251 253 257 265 267 268 270 263 263 266 267 268 277 283 283 282 282 281 279 276 277 277 277 279 281 285 288 288 289 289 290 289 286 280 277 275 274 274 275 275 277 279 282 285 288 293 297 301
272 266 268 272 273 267 260 262 266 265 268 276 285 289 295 294 290 286 285 284 281 282 281 281 283 284 285 286 287 288 289 289 289 285 280 278 276 275 275 275 276 277 278 280 283 285 289 292 296
298 291 280 282 279 264 256 250 255 262 273 283 288 294 296 294 291 289 286 285 285 286 284 284 285 285 286 285 284 284 286 287 286 284 281 279 277 275 275 276 276 277 278 278 280 282 285 287 291
293 292 295 300 304 298 284 262 258 269 281 285 290 294 294 294 292 290 288 287 285 286 286 286 286 285 284 284 284 285 284 284 284 282 280 278 277 276 275 275 276 276 276 277 278 279 281 283 286
300 294 300 304 309 317 319 300 280 271 274 281 289 296 298 296 294 292 291 289 287 287 287 285 286 286 285 284 283 283 282 282 281 280 277 275 274 274 273 273 273 273 274 275 275 276 278 279 281
325 312 295 299 302 303 303 294 287 289 288 285 292 297 299 298 296 295 293 292 290 288 287 285 284 284 283 283 282 282 282 281 279 278 277 275 272 271 270 270 271 270 271 271 272 273 274 276 278
321 321 318 312 308 303 302 301 301 306 303 300 301 301 300 298 295 294 292 290 289 287 286 284 283 283 282 282 281 281 280 279 278 277 275 274 273 271 269 269 268 267 267 268 269 269 270 273 275
304 311 307 304 304 301 300 296 296 300 300 300 300 300 299 297 295 294 292 291 289 287 286 284 283 282 281 280 279 278 278 277 276 275 274 273 271 270 268 267 267 267 266 266 267 266 267 269 272
307 316 315 312 310 305 304 295 297 296 296 298 299 299 298 296 295 294 293 292 291 289 288 286 284 283 281 280 279 277 276 275 274 273 272 271 270 269 268 266 265 265 266 265 266 265 265 266 268